Time,TemperatureF,DewpointF,PressureIn,WindDirection,WindDirectionDegrees,WindSpeedMPH,WindSpeedGustMPH,Humidity,HourlyPrecipIn,Conditions,Clouds,dailyrainin,SoftwareType,DateUTC
2013-02-14 15:37:00,50.1,37.2,29.96,NNW,338,3.5,12.3,61,0.00,,---,0.00,VWS V13.00,2013-02-14 20:37:00,
2013-02-14 15:42:00,49.8,37.3,29.96,WNW,292,3.1,12.3,62,0.00,,---,0.00,VWS V13.00,2013-02-14 20:42:00,
2013-02-14 15:47:00,49.8,37.3,29.96,SW,225,0.0,12.3,62,0.00,,---,0.00,VWS V13.00,2013-02-14 20:47:00,
2013-02-14 15:52:00,49.6,37.1,29.96,West,270,0.0,12.3,62,0.00,,---,0.00,VWS V13.00,2013-02-14 20:52:00,
2013-02-14 15:57:00,49.2,36.8,29.96,West,270,5.3,12.3,62,0.00,,---,0.00,VWS V13.00,2013-02-14 20:57:00,
2013-02-14 16:02:00,49.1,36.7,29.96,NW,315,6.4,12.3,62,0.00,,---,0.00,VWS V13.00,2013-02-14 21:02:00,
2013-02-14 16:07:00,49.1,37.1,29.97,SSE,158,0.0,12.3,63,0.00,,---,0.00,VWS V13.00,2013-02-14 21:07:00,
2013-02-14 16:12:00,48.9,36.9,29.97,SSE,158,0.0,12.3,63,0.00,,---,0.00,VWS V13.00,2013-02-14 21:12:00,
2013-02-14 16:17:00,48.5,36.5,29.98,West,270,4.2,12.3,63,0.00,,---,0.00,VWS V13.00,2013-02-14 21:17:00,
2013-02-14 16:22:00,48.3,36.3,29.98,WSW,248,0.0,12.3,63,0.00,,---,0.00,VWS V13.00,2013-02-14 21:22:00,
2013-02-14 16:27:00,48.3,36.3,29.98,WSW,248,0.8,12.3,63,0.00,,---,0.00,VWS V13.00,2013-02-14 21:27:00,
2013-02-14 16:32:00,48.0,36.0,29.98,West,270,0.0,12.3,63,0.00,,---,0.00,VWS V13.00,2013-02-14 21:32:00,
2013-02-14 16:37:00,47.8,35.8,29.97,WNW,292,0.0,12.3,63,0.00,,---,0.00,VWS V13.00,2013-02-14 21:37:00,
2013-02-14 16:42:00,47.3,35.8,29.98,SSW,202,0.0,12.3,64,0.00,,---,0.00,VWS V13.00,2013-02-14 21:42:00,
2013-02-14 16:47:00,47.1,35.6,29.97,West,270,0.0,12.3,64,0.00,,---,0.00,VWS V13.00,2013-02-14 21:47:00,
2013-02-14 16:52:00,46.5,35.0,29.97,South,180,0.0,12.3,64,0.00,,---,0.00,VWS V13.00,2013-02-14 21:52:00,
2013-02-14 16:57:00,46.4,35.3,29.97,WSW,248,0.0,12.3,65,0.00,,---,0.00,VWS V13.00,2013-02-14 21:57:00,
2013-02-14 17:02:00,46.2,35.1,29.97,West,270,0.0,12.3,65,0.00,,---,0.00,VWS V13.00,2013-02-14 22:02:00,
2013-02-14 17:07:00,46.0,34.9,29.96,NW,315,0.0,12.3,65,0.00,,---,0.00,VWS V13.00,2013-02-14 22:07:00,
2013-02-14 17:12:00,45.5,34.8,29.96,West,270,0.0,12.3,66,0.00,,---,0.00,VWS V13.00,2013-02-14 22:12:00,
2013-02-14 17:17:00,45.3,34.6,29.96,West,270,0.0,12.3,66,0.00,,---,0.00,VWS V13.00,2013-02-14 22:17:00,
2013-02-14 17:22:00,44.9,34.2,29.97,West,270,0.0,12.3,66,0.00,,---,0.00,VWS V13.00,2013-02-14 22:22:00,